FW2297 Weather Reports


Display with metric or nautical units.
time (UTC)temp
F
wind
direction
speed
MPH
gust
MPH
rain 1hr
in
rain 24hr
in
rain mn
in
humidity
%
barometer
mb
20210613211054 83 0 1.0 5.0 0.00 0.00 0.00 26 1010.2
20210613210551 83 0 0.0 5.0 0.00 0.00 0.00 29 1010.1
20210613210142 83 0 1.0 6.0 0.00 0.00 0.00 28 1010.1
20210613205551 83 341 2.0 6.0 0.00 0.00 0.00 28 1010.1
20210613205108 83 318 1.0 6.0 0.00 0.00 0.00 27 1010.2
20210613204656 83 359 0.0 8.0 0.00 0.00 0.00 27 1010.2
20210613204055 83 358 3.0 10.0 0.00 0.00 0.00 28 1010.2
20210613203550 83 246 3.0 10.0 0.00 0.00 0.00 29 1010.2
20210613203104 83 294 4.0 9.0 0.00 0.00 0.00 28 1010.1
20210613202604 83 257 1.0 6.0 0.00 0.00 0.00 29 1010.3
20210613202102 83 285 1.0 8.0 0.00 0.00 0.00 29 1010.2
20210613201710 82 0 2.0 8.0 0.00 0.00 0.00 30 1010.2
20210613201050 82 337 0.0 6.0 0.00 0.00 0.00 28 1010.3
20210613200550 82 273 1.0 6.0 0.00 0.00 0.00 27 1010.3
20210613200246 83 342 1.0 6.0 0.00 0.00 0.00 28 1010.1
20210613195637 83 289 0.0 7.0 0.00 0.00 0.00 26 1010.3
20210613195103 83 0 3.0 7.0 0.00 0.00 0.00 27 1010.3
20210613194814 83 325 0.0 5.0 0.00 0.00 0.00 29 1010.3
20210613194101 83 0 2.0 6.0 0.00 0.00 0.00 29 1010.3
20210613193549 83 0 1.0 8.0 0.00 0.00 0.00 27 1010.4
20210613193306 82 257 2.0 9.0 0.00 0.00 0.00 28 1010.3
20210613192604 83 2 5.0 9.0 0.00 0.00 0.00 26 1010.4
20210613192056 83 266 2.0 8.0 0.00 0.00 0.00 26 1010.3
20210613191646 83 0 1.0 7.0 0.00 0.00 0.00 26 1010.6
20210613191051 83 0 0.0 9.0 0.00 0.00 0.00 28 1010.6
20210613190605 82 285 4.0 9.0 0.00 0.00 0.00 28 1010.7
20210613190237 82 291 0.0 5.0 0.00 0.00 0.00 26 1010.6
20210613185550 83 0 1.0 6.0 0.00 0.00 0.00 28 1010.8
20210613185050 83 0 1.0 8.0 0.00 0.00 0.00 27 1010.7
20210613184740 83 332 1.0 8.0 0.00 0.00 0.00 28 1010.7
20210613184049 83 257 2.0 10.0 0.00 0.00 0.00 28 1010.7
20210613183550 83 340 2.0 10.0 0.00 0.00 0.00 26 1010.8
20210613183124 83 278 2.0 7.0 0.00 0.00 0.00 29 1010.7
20210613182551 83 0 3.0 6.0 0.00 0.00 0.00 29 1010.7
20210613182051 82 32 1.0 8.0 0.00 0.00 0.00 29 1010.6
20210613181652 82 0 1.0 8.0 0.00 0.00 0.00 27 1010.7
20210613181050 82 344 2.0 6.0 0.00 0.00 0.00 31 1010.8
20210613180549 82 0 1.0 7.0 0.00 0.00 0.00 28 1010.7
20210613180200 82 110 2.0 9.0 0.00 0.00 0.00 31 1010.9
20210613175550 82 0 2.0 9.0 0.00 0.00 0.00 30 1010.9
20210613175102 81 0 0.0 6.0 0.00 0.00 0.00 33 1010.8
20210613174808 81 0 1.0 6.0 0.00 0.00 0.00 31 1010.9
20210613174104 80 0 2.0 6.0 0.00 0.00 0.00 31 1011.0
20210613173551 80 327 0.0 5.0 0.00 0.00 0.00 29 1011.0
20210613173211 80 0 0.0 7.0 0.00 0.00 0.00 31 1011.0
20210613172551 81 300 2.0 7.0 0.00 0.00 0.00 31 1011.0
20210613172053 81 0 0.0 6.0 0.00 0.00 0.00 27 1011.0
20210613171614 81 0 0.0 12.0 0.00 0.00 0.00 29 1011.0
20210613171110 82 342 4.0 12.0 0.00 0.00 0.00 29 1011.0
20210613170554 81 0 1.0 8.0 0.00 0.00 0.00 28 1010.9
20210613170202 81 0 2.0 8.0 0.00 0.00 0.00 26 1011.1
20210613165551 81 328 3.0 8.0 0.00 0.00 0.00 28 1011.1
20210613165050 81 294 3.0 8.0 0.00 0.00 0.00 29 1011.1
20210613164613 81 295 2.0 7.0 0.00 0.00 0.00 29 1011.1
20210613164116 81 350 2.0 7.0 0.00 0.00 0.00 28 1011.2
20210613163556 80 0 2.0 8.0 0.00 0.00 0.00 27 1011.2
20210613163214 80 284 3.0 8.0 0.00 0.00 0.00 27 1011.3
20210613162551 80 280 1.0 10.0 0.00 0.00 0.00 28 1011.2
20210613162051 80 277 2.0 10.0 0.00 0.00 0.00 26 1011.3
20210613161717 80 278 3.0 8.0 0.00 0.00 0.00 27 1011.2
20210613161052 80 282 3.0 8.0 0.00 0.00 0.00 28 1011.3
20210613160554 80 273 2.0 7.0 0.00 0.00 0.00 29 1011.3
20210613160219 80 356 2.0 7.0 0.00 0.00 0.00 27 1011.3
20210613155606 80 280 2.0 6.0 0.00 0.00 0.00 26 1011.3
20210613155115 80 148 0.0 9.0 0.00 0.00 0.00 29 1011.4
20210613154632 79 0 0.0 9.0 0.00 0.00 0.00 29 1011.4
20210613154109 79 279 3.0 9.0 0.00 0.00 0.00 26 1011.4
20210613153552 79 319 3.0 9.0 0.00 0.00 0.00 30 1011.4
20210613153147 79 226 0.0 8.0 0.00 0.00 0.00 31 1011.4
20210613152550 78 0 2.0 8.0 0.00 0.00 0.00 33 1011.5
20210613152051 78 323 2.0 8.0 0.00 0.00 0.00 36 1011.4
20210613151714 78 278 1.0 6.0 0.00 0.00 0.00 35 1011.5
20210613151051 77 0 0.0 2.0 0.00 0.00 0.00 40 1011.6
20210613150551 77 0 0.0 6.0 0.00 0.00 0.00 44 1011.6
20210613150146 77 0 1.0 6.0 0.00 0.00 0.00 43 1011.7
20210613145550 76 0 2.0 5.0 0.00 0.00 0.00 44 1011.6
20210613145054 76 347 1.0 5.0 0.00 0.00 0.00 48 1011.7
20210613144836 75 292 1.0 6.0 0.00 0.00 0.00 49 1011.7
20210613144050 75 285 1.0 6.0 0.00 0.00 0.00 48 1011.7
20210613143555 74 0 0.0 3.0 0.00 0.00 0.00 51 1011.7
20210613143154 73 0 0.0 0.0 0.00 0.00 0.00 53 1011.7
20210613142550 72 0 0.0 3.0 0.00 0.00 0.00 54 1011.7
20210613142108 72 0 0.0 3.0 0.00 0.00 0.00 55 1011.6
20210613141655 71 0 0.0 0.0 0.00 0.00 0.00 58 1011.8
20210613141050 71 0 0.0 4.0 0.00 0.00 0.00 57 1011.7
20210613140556 70 0 0.0 4.0 0.00 0.00 0.00 56 1011.8
20210613140125 70 0 0.0 5.0 0.00 0.00 0.00 57 1011.9
20210613135548 70 0 0.0 5.0 0.00 0.00 0.00 58 1011.8
20210613135052 69 266 0.0 3.0 0.00 0.00 0.00 59 1011.8
20210613134618 69 266 0.0 2.0 0.00 0.00 0.00 59 1012.0
20210613134051 69 320 0.0 1.0 0.00 0.00 0.00 58 1011.9
20210613133553 68 0 0.0 1.0 0.00 0.00 0.00 58 1012.0
20210613133157 68 0 0.0 0.0 0.00 0.00 0.00 60 1012.1
20210613132551 67 0 0.0 1.0 0.00 0.00 0.00 59 1012.1
20210613132057 67 0 0.0 1.0 0.00 0.00 0.00 60 1012.1
20210613131747 66 0 0.0 0.0 0.00 0.00 0.00 61 1012.0
20210613131059 66 0 0.0 1.0 0.00 0.00 0.00 60 1012.1
20210613130552 65 0 0.0 2.0 0.00 0.00 0.00 64 1012.1
20210613130151 64 0 0.0 3.0 0.00 0.00 0.00 64 1012.1
20210613125551 64 0 0.0 3.0 0.00 0.00 0.00 63 1012.1
20210613125050 63 0 0.0 0.0 0.00 0.00 0.00 66 1012.1
20210613124740 62 0 0.0 2.0 0.00 0.00 0.00 68 1012.1
20210613124051 62 0 0.0 2.0 0.00 0.00 0.00 70 1012.2
20210613123551 61 0 0.0 1.0 0.00 0.00 0.00 69 1012.1
20210613123243 60 0 0.0 0.0 0.00 0.00 0.00 71 1012.2
20210613122606 59 0 0.0 0.0 0.00 0.00 0.00 72 1012.2
20210613122108 58 0 0.0 0.0 0.00 0.00 0.00 75 1012.2
20210613121627 57 0 0.0 0.0 0.00 0.00 0.00 77 1012.2
20210613121056 57 0 0.0 2.0 0.00 0.00 0.00 78 1012.1
20210613120605 56 0 0.0 3.0 0.00 0.00 0.00 80 1012.2
20210613120245 55 0 0.0 3.0 0.00 0.00 0.00 80 1012.2
20210613115554 54 0 0.0 1.0 0.00 0.00 0.00 82 1012.2
20210613115058 53 0 0.0 1.0 0.00 0.00 0.00 84 1012.2
20210613114729 53 0 0.0 0.0 0.00 0.00 0.00 86 1012.2
20210613114054 52 0 0.0 2.0 0.00 0.00 0.00 87 1012.2
20210613113639 52 0 0.0 2.0 0.00 0.00 0.00 87 1012.1
20210613113126 51 0 0.0 1.0 0.00 0.00 0.00 89 1012.3
20210613112553 51 0 0.0 0.0 0.00 0.00 0.00 90 1012.4
20210613112101 50 0 0.0 0.0 0.00 0.00 0.00 91 1012.4
20210613111617 50 0 0.0 0.0 0.00 0.00 0.00 91 1012.3
20210613111053 49 0 0.0 0.0 0.00 0.00 0.00 92 1012.3
20210613110558 49 0 0.0 0.0 0.00 0.00 0.00 92 1012.2
20210613110216 49 0 0.0 0.0 0.00 0.00 0.00 92 1012.3
20210613105617 49 0 0.0 0.0 0.00 0.00 0.00 93 1012.3
20210613105053 48 0 0.0 0.0 0.00 0.00 0.00 93 1012.2
20210613104634 48 0 0.0 0.0 0.00 0.00 0.00 93 1012.2
20210613104053 48 0 0.0 0.0 0.00 0.00 0.00 93 1012.1
20210613103553 48 0 0.0 0.0 0.00 0.00 0.00 93 1012.2
20210613103149 47 0 0.0 0.0 0.00 0.00 0.00 93 1012.1
20210613102554 47 0 0.0 0.0 0.00 0.00 0.00 92 1012.1
20210613102110 47 0 0.0 0.0 0.00 0.00 0.00 92 1011.9
20210613101701 47 0 0.0 0.0 0.00 0.00 0.00 92 1012.0
20210613101055 47 0 0.0 0.0 0.00 0.00 0.00 92 1011.9
20210613100553 47 0 0.0 0.0 0.00 0.00 0.00 92 1011.9
20210613100146 47 0 0.0 0.0 0.00 0.00 0.00 92 1011.9
20210613095554 47 0 0.0 0.0 0.00 0.00 0.00 92 1012.0
20210613095107 47 0 0.0 0.0 0.00 0.00 0.00 92 1011.9
20210613094632 47 0 0.0 0.0 0.00 0.00 0.00 92 1011.8
20210613094107 47 0 0.0 0.0 0.00 0.00 0.00 92 1011.7
20210613093554 47 0 0.0 0.0 0.00 0.00 0.00 92 1011.7
20210613093142 47 0 0.0 0.0 0.00 0.00 0.00 92 1011.7
20210613092559 47 0 0.0 0.0 0.00 0.00 0.00 92 1011.7
20210613092122 47 0 0.0 0.0 0.00 0.00 0.00 92 1011.8
20210613091630 47 0 0.0 0.0 0.00 0.00 0.00 92 1011.6
20210613091053 47 0 0.0 0.0 0.00 0.00 0.00 92 1011.6
20210613090650 47 0 0.0 0.0 0.00 0.00 0.00 92 1011.6
20210613090209 48 0 0.0 0.0 0.00 0.00 0.00 92 1011.5
20210613085600 48 0 0.0 0.0 0.00 0.00 0.00 91 1011.5
20210613085101 48 0 0.0 0.0 0.00 0.00 0.00 91 1011.4
20210613084700 48 0 0.0 0.0 0.00 0.00 0.00 91 1011.4
20210613084054 48 0 0.0 0.0 0.00 0.00 0.00 91 1011.5
20210613083608 48 0 0.0 0.0 0.00 0.00 0.00 91 1011.3
20210613083146 48 0 0.0 0.0 0.00 0.00 0.00 91 1011.3
20210613082553 48 0 0.0 0.0 0.00 0.00 0.00 91 1011.2
20210613082054 48 0 0.0 0.0 0.00 0.00 0.00 91 1011.2
20210613081636 48 0 0.0 0.0 0.00 0.00 0.00 91 1011.2
20210613081111 48 0 0.0 0.0 0.00 0.00 0.00 91 1011.1
20210613080609 49 0 0.0 0.0 0.00 0.00 0.00 91 1011.2
20210613080145 49 0 0.0 0.0 0.00 0.00 0.00 90 1011.2
20210613075559 49 0 0.0 0.0 0.00 0.00 0.00 90 1011.1
20210613075124 49 0 0.0 0.0 0.00 0.00 0.00 90 1011.1
20210613074802 49 0 0.0 0.0 0.00 0.00 0.00 90 1011.2
20210613074056 49 0 0.0 0.0 0.00 0.00 0.00 89 1011.2
20210613073554 49 0 0.0 0.0 0.00 0.00 0.00 89 1011.2
20210613073132 49 0 0.0 0.0 0.00 0.00 0.00 89 1011.2
20210613072558 49 0 0.0 0.0 0.00 0.00 0.00 89 1011.3
20210613072054 49 0 0.0 0.0 0.00 0.00 0.00 89 1011.3
20210613071630 49 0 0.0 0.0 0.00 0.00 0.00 89 1011.4
20210613071109 49 0 0.0 0.0 0.00 0.00 0.00 89 1011.4
20210613070554 49 0 0.0 0.0 0.00 0.00 0.00 88 1011.4
20210613070226 49 0 0.0 0.0 0.00 0.00 0.00 87 1011.3
20210613065628 50 0 0.0 0.0 0.00 0.00 0.00 88 1011.3
20210613065126 50 0 0.0 0.0 0.00 0.00 0.00 87 1011.3
20210613064727 50 0 0.0 0.0 0.00 0.00 0.00 87 1011.4
20210613064105 50 0 0.0 0.0 0.00 0.00 0.00 87 1011.3
20210613063553 50 0 0.0 0.0 0.00 0.00 0.00 86 1011.4
20210613063222 50 0 0.0 0.0 0.00 0.00 0.00 86 1011.3
20210613062608 51 0 0.0 0.0 0.00 0.00 0.00 85 1011.3
20210613062059 51 0 0.0 0.0 0.00 0.00 0.00 85 1011.3
20210613061734 51 0 0.0 0.0 0.00 0.00 0.00 85 1011.3
20210613061054 51 0 0.0 0.0 0.00 0.00 0.00 84 1011.3
20210613060554 51 0 0.0 0.0 0.00 0.00 0.00 84 1011.4
20210613060121 51 0 0.0 0.0 0.00 0.00 0.00 83 1011.2
20210613055553 52 0 0.0 0.0 0.00 0.00 0.00 83 1011.2
20210613055051 52 0 0.0 0.0 0.00 0.00 0.00 83 1011.3
20210613054700 52 0 0.0 0.0 0.00 0.00 0.00 82 1011.2
20210613054053 53 0 0.0 0.0 0.00 0.00 0.00 82 1011.3
20210613053609 53 0 0.0 0.0 0.00 0.00 0.00 82 1011.2
20210613053227 53 0 0.0 0.0 0.00 0.00 0.00 81 1011.2
20210613052559 54 0 0.0 0.0 0.00 0.00 0.00 81 1011.1
20210613052053 54 0 0.0 0.0 0.00 0.00 0.00 79 1011.2
20210613051636 54 0 0.0 0.0 0.00 0.00 0.00 78 1011.2
20210613051053 54 0 0.0 0.0 0.00 0.00 0.00 77 1011.3
20210613050553 54 0 0.0 0.0 0.00 0.00 0.00 77 1011.4
20210613050137 55 0 0.0 0.0 0.00 0.00 0.00 77 1011.3
20210613045607 55 0 0.0 2.0 0.00 0.00 0.00 77 1011.3
20210613045057 55 0 0.0 2.0 0.00 0.00 0.00 77 1011.3
20210613044746 55 0 0.0 0.0 0.00 0.00 0.00 75 1011.3
20210613044059 56 0 0.0 0.0 0.00 0.00 0.00 76 1011.3
20210613043657 56 0 0.0 0.0 0.00 0.00 0.00 75 1011.3
20210613043145 56 0 0.0 0.0 0.00 0.00 0.00 75 1011.2
20210613042636 57 0 0.0 0.0 0.00 0.00 0.00 75 1011.3
20210613042104 57 0 0.0 0.0 0.00 0.00 0.00 75 1011.2
20210613041751 57 0 0.0 0.0 0.00 0.00 0.00 74 1011.4
20210613041056 57 0 0.0 0.0 0.00 0.00 0.00 74 1011.2
20210613040553 57 0 0.0 0.0 0.00 0.00 0.00 74 1011.3
20210613040124 57 0 0.0 0.0 0.00 0.00 0.00 73 1011.2
20210613035553 57 0 0.0 0.0 0.00 0.00 0.00 73 1011.2
20210613035053 58 0 0.0 0.0 0.00 0.00 0.00 73 1011.2
20210613034627 58 0 0.0 0.0 0.00 0.00 0.00 72 1011.2
20210613034115 58 0 0.0 0.0 0.00 0.00 0.00 71 1011.2
20210613033554 59 0 0.0 0.0 0.00 0.00 0.00 73 1011.2
20210613033206 59 0 0.0 0.0 0.00 0.00 0.00 72 1011.2
20210613032600 59 0 0.0 0.0 0.00 0.00 0.00 71 1011.1
20210613032101 59 0 0.0 0.0 0.00 0.00 0.00 69 1011.1
20210613031717 59 0 0.0 0.0 0.00 0.00 0.00 69 1011.1
20210613031053 59 0 0.0 0.0 0.00 0.00 0.00 68 1011.0
20210613030553 58 0 0.0 0.0 0.00 0.00 0.00 70 1011.0
20210613030213 58 0 0.0 0.0 0.00 0.00 0.00 72 1010.9
20210613025558 58 0 0.0 0.0 0.00 0.00 0.00 73 1010.8
20210613025053 58 0 0.0 0.0 0.00 0.00 0.00 72 1010.8
20210613024744 58 0 0.0 0.0 0.00 0.00 0.00 72 1010.8
20210613024051 58 0 0.0 4.0 0.00 0.00 0.00 72 1010.9
20210613023602 58 0 0.0 4.0 0.00 0.00 0.00 74 1010.7
20210613023118 58 0 0.0 3.0 0.00 0.00 0.00 74 1010.7
20210613022557 58 0 0.0 3.0 0.00 0.00 0.00 73 1010.7
20210613022050 58 0 0.0 3.0 0.00 0.00 0.00 74 1010.6
20210613021714 58 0 0.0 3.0 0.00 0.00 0.00 74 1010.4
20210613021054 58 0 0.0 0.0 0.00 0.00 0.00 75 1010.2
20210613020553 58 0 0.0 0.0 0.00 0.00 0.00 75 1010.2
20210613020155 58 0 0.0 0.0 0.00 0.00 0.00 76 1010.2
20210613015554 58 0 0.0 0.0 0.00 0.00 0.00 76 1010.2
20210613015054 59 0 0.0 0.0 0.00 0.00 0.00 74 1010.1
20210613014558 59 0 0.0 0.0 0.00 0.00 0.00 75 1010.2
20210613014050 59 0 0.0 0.0 0.00 0.00 0.00 76 1010.1
20210613013552 59 0 0.0 0.0 0.00 0.00 0.00 75 1010.0
20210613013140 60 0 0.0 0.0 0.00 0.00 0.00 73 1010.0
20210613012605 60 0 0.0 0.0 0.00 0.00 0.00 73 1010.0
20210613012057 60 0 0.0 0.0 0.00 0.00 0.00 74 1009.8
20210613011615 61 0 0.0 0.0 0.00 0.00 0.00 73 1009.7
20210613011111 61 0 0.0 3.0 0.00 0.00 0.00 72 1009.6
20210613010553 61 0 1.0 3.0 0.00 0.00 0.00 72 1009.7
20210613010154 62 0 0.0 1.0 0.00 0.00 0.00 71 1009.6
20210613005623 62 126 0.0 3.0 0.00 0.00 0.00 70 1009.6
20210613005053 63 0 0.0 3.0 0.00 0.00 0.00 70 1009.6
20210613004756 63 134 0.0 0.0 0.00 0.00 0.00 68 1009.6
20210613004049 64 0 0.0 0.0 0.00 0.00 0.00 67 1009.5
20210613003551 65 0 0.0 0.0 0.00 0.00 0.00 65 1009.4
20210613003141 66 0 0.0 0.0 0.00 0.00 0.00 65 1009.4
20210613002553 66 0 0.0 0.0 0.00 0.00 0.00 63 1009.4
20210613002048 67 0 0.0 2.0 0.00 0.00 0.00 60 1009.3
20210613001716 68 0 0.0 2.0 0.00 0.00 0.00 59 1009.1
20210613001053 69 0 0.0 0.0 0.00 0.00 0.00 57 1009.1
20210613000553 70 0 0.0 0.0 0.00 0.00 0.00 57 1009.1
20210613000208 71 0 0.0 0.0 0.00 0.00 0.00 55 1009.1
20210612235553 72 0 0.0 0.0 0.00 0.00 0.00 54 1009.0
20210612235054 72 0 0.0 0.0 0.00 0.00 0.00 52 1009.1
20210612234756 73 0 0.0 0.0 0.00 0.00 0.00 51 1009.0
20210612234050 74 0 0.0 0.0 0.00 0.00 0.00 48 1008.9
20210612233549 74 0 0.0 0.0 0.00 0.00 0.00 47 1008.9
20210612233205 74 0 0.0 0.0 0.00 0.00 0.00 46 1008.9
20210612232555 74 0 0.0 0.0 0.00 0.00 0.00 43 1008.8
20210612232049 74 0 0.0 0.0 0.00 0.00 0.00 43 1008.9
20210612231713 75 0 0.0 4.0 0.00 0.00 0.00 41 1008.9
20210612231050 75 0 0.0 4.0 0.00 0.00 0.00 41 1008.9
20210612230549 75 271 0.0 0.0 0.00 0.00 0.00 39 1008.9
20210612230137 76 0 0.0 0.0 0.00 0.00 0.00 39 1008.7
20210612225602 76 0 0.0 4.0 0.00 0.00 0.00 39 1008.8
20210612225056 76 0 0.0 6.0 0.00 0.00 0.00 39 1008.8
20210612224638 76 284 2.0 7.0 0.00 0.00 0.00 39 1008.7
20210612224050 76 328 3.0 8.0 0.00 0.00 0.00 37 1008.7
20210612223554 77 283 1.0 8.0 0.00 0.00 0.00 37 1008.7
20210612223219 77 0 3.0 7.0 0.00 0.00 0.00 36 1008.7
20210612222609 77 304 1.0 8.0 0.00 0.00 0.00 36 1008.8
20210612222052 77 304 2.0 8.0 0.00 0.00 0.00 35 1008.7
20210612221659 77 345 3.0 8.0 0.00 0.00 0.00 35 1008.8
20210612221051 77 260 2.0 8.0 0.00 0.00 0.00 35 1008.8
20210612220610 77 278 4.0 8.0 0.00 0.00 0.00 35 1008.7
20210612220140 77 276 1.0 8.0 0.00 0.00 0.00 37 1008.7
20210612215553 77 314 1.0 10.0 0.00 0.00 0.00 37 1008.8
20210612215055 77 314 2.0 10.0 0.00 0.00 0.00 36 1008.8
20210612214707 77 265 1.0 8.0 0.00 0.00 0.00 34 1008.7
20210612214050 77 316 3.0 8.0 0.00 0.00 0.00 34 1008.8
20210612213551 77 290 0.0 8.0 0.00 0.00 0.00 36 1008.7
20210612213155 77 301 1.0 8.0 0.00 0.00 0.00 34 1008.7
20210612212552 77 275 2.0 12.0 0.00 0.00 0.00 36 1008.8
20210612212051 77 285 5.0 12.0 0.00 0.00 0.00 35 1008.9
20210612211650 77 249 2.0 8.0 0.00 0.00 0.00 35 1008.9